Amargosa Valley, NV

3:23 AM PST on February 22, 2017 (GMT -0800)
Mercury

Weather History for KDRA - January, 2014

Change the Weather History Date:

Thursday, January 30, 2014

  Actual Average Record
Temperature  
Mean Temperature 54 °F 45 °F  
Max Temperature 64 °F 57 °F 74 °F (2003)
Min Temperature 43 °F 33 °F 18 °F (1979)
Degree Days  
Heating Degree Days 12    
Cooling Degree Days 0    
Growing Degree Days 4 (Base 50)    
Moisture  
Dew Point 28 °F    
Average Humidity 38    
Maximum Humidity 51    
Minimum Humidity 14    
Precipitation  
Precipitation 0.00 in 0.03 in 0.39 in (1986)
Month to date precipitation 0.72  
Year to date precipitation 0.72  
Sea Level Pressure  
Sea Level Pressure 29.63 in    
Wind  
Wind Speed 11 mph (East)    
Max Wind Speed 29 mph    
Max Gust Speed 37 mph    
Visibility 10 miles    
Events      
T = Trace of Precipitation, MM = Missing Value Source: NWS Daily Summary

Daily Weather History Graph

Daily Weather History Graph

Search for Another Location

Airport or City:

Trip Planner

Search our weather history database for the weather conditions in past years. The results will help you decide how hot, cold, wet, or windy it might be!

Date:

Astronomy

Jan. 30, 2014 Rise Set
Actual Time 6:47 AM PST 5:07 PM PST
Civil Twilight 6:20 AM PST 5:35 PM PST
Nautical Twilight 5:49 AM PST 6:06 PM PST
Astronomical Twilight 5:18 AM PST 6:36 PM PST
Moon 6:17 AM PST (1/30) 5:23 PM PST (1/30)
Length of Visible Light 11h 15m
Length of Day
10h 20m
Waning Crescent, 0% of the Moon is Illuminated
Jan 30
Waning Crescent
Jan 30
New
Feb 6
First Quarter
Feb 14
Full
Feb 22
Last Quarter

Hourly Weather History & Observations

Time (PST) Temp. Windchill Dew Point Humidity Pressure Visibility Wind Dir Wind Speed Gust Speed Precip Events Conditions
12:52 AM 46.0 °F - 23.0 °F 40% 29.75 in 10.0 mi Calm Calm - N/A   Clear
1:52 AM 46.0 °F 42.5 °F 23.0 °F 40% 29.74 in 10.0 mi East 6.9 mph - N/A   Clear
2:52 AM 46.0 °F 42.5 °F 24.1 °F 42% 29.71 in 10.0 mi ESE 6.9 mph - N/A   Clear
3:52 AM 45.0 °F 42.6 °F 24.1 °F 44% 29.68 in 10.0 mi NE 4.6 mph - N/A   Clear
4:52 AM 45.0 °F 41.2 °F 24.1 °F 44% 29.65 in 10.0 mi East 6.9 mph - N/A   Clear
5:52 AM 45.0 °F 40.6 °F 24.1 °F 44% 29.63 in 10.0 mi East 8.1 mph - N/A   Clear
6:52 AM 45.0 °F 41.2 °F 25.0 °F 46% 29.63 in 10.0 mi ENE 6.9 mph - N/A   Clear
7:52 AM 51.1 °F - 26.1 °F 38% 29.62 in 10.0 mi Calm Calm - N/A   Mostly Cloudy
8:52 AM 63.0 °F - 26.1 °F 25% 29.62 in 10.0 mi SSW 19.6 mph 32.2 mph N/A   Overcast
9:52 AM 63.0 °F - 26.1 °F 25% 29.62 in 10.0 mi SSW 28.8 mph 35.7 mph N/A   Clear
10:52 AM 63.0 °F - 27.0 °F 26% 29.60 in 10.0 mi SSW 25.3 mph 36.8 mph N/A   Clear
11:52 AM 63.0 °F - 28.0 °F 27% 29.56 in 10.0 mi SSW 23.0 mph 36.8 mph N/A   Clear
12:52 PM 63.0 °F - 30.9 °F 30% 29.54 in 10.0 mi SSW 23.0 mph 29.9 mph N/A   Clear
1:52 PM 63.0 °F - 33.1 °F 33% 29.54 in 10.0 mi SSW 21.9 mph 34.5 mph N/A   Mostly Cloudy
2:52 PM 62.1 °F - 33.1 °F 34% 29.56 in 10.0 mi SW 21.9 mph 29.9 mph N/A   Overcast
3:52 PM 62.1 °F - 35.1 °F 37% 29.56 in 10.0 mi SW 16.1 mph - N/A   Overcast
4:52 PM 53.1 °F - 30.0 °F 41% 29.61 in 10.0 mi NE 21.9 mph 31.1 mph N/A   Overcast
5:52 PM 52.0 °F - 30.9 °F 45% 29.62 in 10.0 mi NE 17.3 mph - N/A   Overcast
6:52 PM 48.9 °F - 30.9 °F 50% 29.65 in 10.0 mi NE 18.4 mph - N/A   Overcast
7:52 PM 48.9 °F - 30.0 °F 48% 29.66 in 10.0 mi NE 16.1 mph - N/A   Overcast
8:52 PM 46.0 °F 39.9 °F 28.9 °F 51% 29.65 in 10.0 mi NE 13.8 mph - N/A   Partly Cloudy
9:52 PM 46.0 °F 40.2 °F 28.0 °F 50% 29.65 in 10.0 mi NNE 12.7 mph - N/A   Mostly Cloudy
10:52 PM 46.9 °F - 28.0 °F 48% 29.66 in 10.0 mi NNE 8.1 mph - N/A   Overcast
11:52 PM 46.9 °F - 27.0 °F 46% 29.65 in 10.0 mi NNE 8.1 mph - N/A   Overcast